Погода в Империи

Италия     43°53′33″N   8°02′11″E
темп.,
°C
ветер,
м/с
пор.,
м/с
влажн.,
%
обл.,
%
осадки,
мм/ч
давл.,
гПа
погр.,
м
23 января, сб
сб2301:00+5ссз2288100 6.4 99144
04:00+4с1189100 0.1 99331
07:00+4зсз2282100 0.0 99424
10:00+6сз1180100 0.0 99789
13:00+9ююз227567 0.0 998623
16:00+8ююв017867 0.0 99845
19:00+4зюз228283 0.0 99764
22:00+3сз337110 0.0 99736
24 января, вс
вс2401:00+3сз337450 0.0 99837
04:00+3ссз2371100 0.0 99538
07:00+2ссз3367100 0.0 99458
10:00+5ссз3463100 0.0 996168
13:00+8ссв134357 0.0 998935
16:00+8в12570 0.0 1000184
19:00+3сз33700 0.0 100336
22:00+3з33750 0.0 100437
25 января, пн
пн2501:00+1сз44600 0.0 100179
04:00+1з33720 0.0 100065
07:00+1сз512364 0.0 1006434
10:00+4сз36360 0.0 1009360
13:00+8св235682 0.0 1001605
16:00+7ю116052 0.0 1004189
19:00+2сз336426 0.0 100747
22:00+1сз33600 0.0 101051
26 января, вт
вт2601:000сз445436 0.0 101262
04:000сз44461 0.0 101265
07:00+1сз33480 0.0 101442
10:00+5сз12500 0.0 101694
13:00+7ю22560 0.0 1015696
16:00+6ю116573 0.0 1014132
19:00+2сз337754 0.0 101633
22:00+2ссз33710 0.0 101741
27 января, ср
ср2701:00+2сз33651 0.0 101736
04:00+1сз336658 0.0 101632
07:00+1сз236017 0.0 101628
10:00+5с11622 0.0 1018178
13:00+8всв126636 0.0 1018567
16:00+7вюв1175100 0.0 1017504
19:00+4сз227517 0.0 101722
22:00+3сз2279100 0.0 101925